| time (UTC) | temp C | wind direction | speed KPH | gust KPH | rain 1hr cm | rain 24hr cm | rain mn cm | humidity % | barometer mb |
| 20260504130725 | 32 | 0.0 | 0.0 | 0.00 | 0.00 | 0.00 | 75 | 1011.6 | |
| 20260504130220 | 32 | 0.0 | 0.0 | 0.00 | 0.00 | 0.00 | 75 | 1011.6 | |
| 20260504120145 | 32 | 0.0 | 0.0 | 0.00 | 0.00 | 0.00 | 74 | 1011.6 | |
| 20260504110612 | 33 | 0.0 | 0.0 | 0.00 | 0.00 | 0.00 | 74 | 1010.9 | |
| 20260504110108 | 33 | 0.0 | 0.0 | 0.00 | 0.00 | 0.00 | 74 | 1010.9 | |
| 20260504100534 | 34 | 0.0 | 0.0 | 0.00 | 0.00 | 0.00 | 66 | 1009.9 | |
| 20260504081927 | 36 | 0.0 | 0.0 | 0.00 | 0.00 | 0.00 | 60 | 1009.6 | |
| 20260504081424 | 36 | 0.0 | 0.0 | 0.00 | 0.00 | 0.00 | 59 | 1009.6 | |
| 20260504080920 | 36 | 0.0 | 0.0 | 0.00 | 0.00 | 0.00 | 59 | 1009.6 | |
| 20260504080417 | 36 | 0.0 | 0.0 | 0.00 | 0.00 | 0.00 | 60 | 1009.6 | |
| 20260504070344 | 35 | 0.0 | 0.0 | 0.00 | 0.00 | 0.00 | 62 | 1010.2 | |
| 20260504050732 | 35 | 0.0 | 0.0 | 0.00 | 0.00 | 0.00 | 69 | 1011.6 | |
| 20260504050229 | 35 | 0.0 | 0.0 | 0.00 | 0.00 | 0.00 | 70 | 1011.9 | |
| 20260504045727 | 35 | 0.0 | 0.0 | 0.00 | 0.00 | 0.00 | 70 | 1011.6 | |
| 20260504045221 | 34 | 0.0 | 0.0 | 0.00 | 0.00 | 0.00 | 71 | 1011.6 | |
| 20260504044719 | 34 | 0.0 | 0.0 | 0.00 | 0.00 | 0.00 | 72 | 1011.9 | |
| 20260504044217 | 34 | 0.0 | 0.0 | 0.00 | 0.00 | 0.00 | 72 | 1011.9 | |
| 20260504043714 | 34 | 0.0 | 0.0 | 0.00 | 0.00 | 0.00 | 72 | 1012.3 | |
| 20260504043210 | 34 | 0.0 | 0.0 | 0.00 | 0.00 | 0.00 | 72 | 1011.9 | |
| 20260504042708 | 34 | 0.0 | 0.0 | 0.00 | 0.00 | 0.00 | 73 | 1012.3 | |
| 20260504042204 | 33 | 0.0 | 0.0 | 0.00 | 0.00 | 0.00 | 73 | 1012.3 | |
| 20260504041700 | 33 | 0.0 | 0.0 | 0.00 | 0.00 | 0.00 | 73 | 1012.3 | |
| 20260504041156 | 33 | 0.0 | 0.0 | 0.00 | 0.00 | 0.00 | 75 | 1012.6 | |
| 20260504040653 | 33 | 0.0 | 0.0 | 0.00 | 0.00 | 0.00 | 75 | 1012.6 | |
| 20260504040150 | 33 | 0.0 | 0.0 | 0.00 | 0.00 | 0.00 | 75 | 1012.6 | |
| 20260504035646 | 33 | 0.0 | 0.0 | 0.00 | 0.00 | 0.00 | 76 | 1013.0 | |
| 20260504035144 | 33 | 0.0 | 0.0 | 0.00 | 0.00 | 0.00 | 76 | 1013.0 | |
| 20260504034641 | 33 | 0.0 | 0.0 | 0.00 | 0.00 | 0.00 | 77 | 1013.0 | |
| 20260504034138 | 33 | 0.0 | 0.0 | 0.00 | 0.00 | 0.00 | 77 | 1013.0 | |
| 20260504033636 | 33 | 0.0 | 0.0 | 0.00 | 0.00 | 0.00 | 77 | 1013.0 | |
| 20260504033133 | 32 | 0.0 | 0.0 | 0.00 | 0.00 | 0.00 | 77 | 1013.0 | |
| 20260504032629 | 32 | 0.0 | 0.0 | 0.00 | 0.00 | 0.00 | 77 | 1013.0 | |
| 20260504032126 | 32 | 0.0 | 0.0 | 0.00 | 0.00 | 0.00 | 77 | 1013.0 | |
| 20260504031624 | 32 | 0.0 | 0.0 | 0.00 | 0.00 | 0.00 | 77 | 1013.3 | |
| 20260504031120 | 32 | 0.0 | 0.0 | 0.00 | 0.00 | 0.00 | 77 | 1013.0 | |
| 20260504030617 | 32 | 0.0 | 0.0 | 0.00 | 0.00 | 0.00 | 77 | 1013.3 | |
| 20260504030114 | 32 | 0.0 | 0.0 | 0.00 | 0.00 | 0.00 | 77 | 1013.3 | |
| 20260504025610 | 33 | 0.0 | 0.0 | 0.00 | 0.00 | 0.00 | 76 | 1013.3 | |
| 20260504025108 | 33 | 0.0 | 0.0 | 0.00 | 0.00 | 0.00 | 77 | 1013.0 | |
| 20260504024605 | 33 | 0.0 | 0.0 | 0.00 | 0.00 | 0.00 | 77 | 1013.3 | |
| 20260504024101 | 33 | 0.0 | 0.0 | 0.00 | 0.00 | 0.00 | 77 | 1013.0 | |
| 20260504023557 | 32 | 0.0 | 0.0 | 0.00 | 0.00 | 0.00 | 77 | 1013.3 | |
| 20260504023054 | 32 | 0.0 | 0.0 | 0.00 | 0.00 | 0.00 | 77 | 1013.3 | |
| 20260504022550 | 32 | 0.0 | 0.0 | 0.00 | 0.00 | 0.00 | 77 | 1013.6 | |
| 20260504022046 | 32 | 0.0 | 0.0 | 0.00 | 0.00 | 0.00 | 77 | 1013.6 | |
| 20260504021544 | 32 | 0.0 | 0.0 | 0.00 | 0.00 | 0.00 | 77 | 1013.6 | |
| 20260504021040 | 32 | 0.0 | 0.0 | 0.00 | 0.00 | 0.00 | 78 | 1013.6 | |
| 20260504020537 | 32 | 0.0 | 0.0 | 0.00 | 0.00 | 0.00 | 78 | 1013.6 | |
| 20260504020034 | 32 | 0.0 | 0.0 | 0.00 | 0.00 | 0.00 | 78 | 1013.6 | |
| 20260504015530 | 32 | 0.0 | 0.0 | 0.00 | 0.00 | 0.00 | 78 | 1013.6 | |
| 20260504015026 | 32 | 0.0 | 0.0 | 0.00 | 0.00 | 0.00 | 79 | 1014.0 | |
| 20260504014523 | 32 | 0.0 | 0.0 | 0.00 | 0.00 | 0.00 | 79 | 1014.0 | |
| 20260504014020 | 32 | 0.0 | 0.0 | 0.00 | 0.00 | 0.00 | 79 | 1014.0 | |
| 20260504013518 | 32 | 0.0 | 0.0 | 0.00 | 0.00 | 0.00 | 79 | 1014.0 | |
| 20260504013015 | 32 | 0.0 | 0.0 | 0.00 | 0.00 | 0.00 | 78 | 1014.0 | |
| 20260504012512 | 32 | 0.0 | 0.0 | 0.00 | 0.00 | 0.00 | 79 | 1014.0 | |
| 20260504012010 | 32 | 0.0 | 0.0 | 0.00 | 0.00 | 0.00 | 79 | 1014.0 | |
| 20260504011506 | 32 | 0.0 | 0.0 | 0.00 | 0.00 | 0.00 | 80 | 1013.6 | |
| 20260504011002 | 32 | 0.0 | 0.0 | 0.00 | 0.00 | 0.00 | 80 | 1014.0 | |
| 20260504010458 | 31 | 0.0 | 0.0 | 0.00 | 0.00 | 0.00 | 81 | 1014.0 | |
| 20260504005954 | 31 | 0.0 | 0.0 | 0.00 | 0.00 | 0.00 | 81 | 1014.0 | |
| 20260504005451 | 31 | 0.0 | 0.0 | 0.00 | 0.00 | 0.00 | 81 | 1014.0 | |
| 20260504004948 | 31 | 0.0 | 0.0 | 0.00 | 0.00 | 0.00 | 81 | 1014.0 | |
| 20260504004446 | 31 | 0.0 | 0.0 | 0.00 | 0.00 | 0.00 | 81 | 1014.0 | |
| 20260504003943 | 31 | 0.0 | 0.0 | 0.00 | 0.00 | 0.00 | 81 | 1014.0 | |
| 20260504003439 | 31 | 0.0 | 0.0 | 0.00 | 0.00 | 0.00 | 80 | 1013.6 | |
| 20260504002936 | 31 | 0.0 | 0.0 | 0.00 | 0.00 | 0.00 | 79 | 1013.6 | |
| 20260504002433 | 31 | 0.0 | 0.0 | 0.00 | 0.00 | 0.00 | 79 | 1013.6 | |
| 20260504001930 | 31 | 0.0 | 0.0 | 0.00 | 0.00 | 0.00 | 79 | 1014.0 | |
| 20260504001428 | 31 | 0.0 | 0.0 | 0.00 | 0.00 | 0.00 | 79 | 1013.6 | |
| 20260504000924 | 31 | 0.0 | 0.0 | 0.00 | 0.00 | 0.00 | 78 | 1013.6 | |
| 20260504000423 | 31 | 0.0 | 0.0 | 0.00 | 0.00 | 0.00 | 78 | 1013.6 | |
| 20260503235918 | 31 | 0.0 | 0.0 | 0.00 | 0.00 | 0.00 | 78 | 1013.3 | |
| 20260503235416 | 31 | 0.0 | 0.0 | 0.00 | 0.00 | 0.00 | 77 | 1013.6 | |
| 20260503234914 | 31 | 0.0 | 0.0 | 0.00 | 0.00 | 0.00 | 77 | 1013.3 | |
| 20260503234411 | 31 | 0.0 | 0.0 | 0.00 | 0.00 | 0.00 | 77 | 1013.0 | |
| 20260503233909 | 31 | 0.0 | 0.0 | 0.00 | 0.00 | 0.00 | 77 | 1013.0 | |
| 20260503233405 | 31 | 0.0 | 0.0 | 0.00 | 0.00 | 0.00 | 77 | 1013.0 | |
| 20260503232901 | 31 | 0.0 | 0.0 | 0.00 | 0.00 | 0.00 | 77 | 1013.0 | |
| 20260503232359 | 31 | 0.0 | 0.0 | 0.00 | 0.00 | 0.00 | 77 | 1013.0 | |
| 20260503231856 | 31 | 0.0 | 0.0 | 0.00 | 0.00 | 0.00 | 77 | 1013.0 | |
| 20260503231353 | 31 | 0.0 | 0.0 | 0.00 | 0.00 | 0.00 | 77 | 1013.0 | |
| 20260503230849 | 31 | 0.0 | 0.0 | 0.00 | 0.00 | 0.00 | 78 | 1012.6 | |
| 20260503230346 | 31 | 0.0 | 0.0 | 0.00 | 0.00 | 0.00 | 78 | 1012.6 | |
| 20260503225844 | 31 | 0.0 | 0.0 | 0.00 | 0.00 | 0.00 | 78 | 1013.0 | |
| 20260503225340 | 31 | 0.0 | 0.0 | 0.00 | 0.00 | 0.00 | 78 | 1012.6 | |
| 20260503224836 | 30 | 0.0 | 0.0 | 0.00 | 0.00 | 0.00 | 78 | 1012.6 | |
| 20260503224334 | 30 | 0.0 | 0.0 | 0.00 | 0.00 | 0.00 | 78 | 1012.6 | |
| 20260503223831 | 30 | 0.0 | 0.0 | 0.00 | 0.00 | 0.00 | 78 | 1012.3 | |
| 20260503223329 | 30 | 0.0 | 0.0 | 0.00 | 0.00 | 0.00 | 79 | 1012.3 | |
| 20260503222824 | 30 | 0.0 | 0.0 | 0.00 | 0.00 | 0.00 | 79 | 1012.3 | |
| 20260503222323 | 30 | 0.0 | 0.0 | 0.00 | 0.00 | 0.00 | 79 | 1012.3 | |
| 20260503221820 | 30 | 0.0 | 0.0 | 0.00 | 0.00 | 0.00 | 79 | 1012.3 | |
| 20260503221320 | 30 | 0.0 | 0.0 | 0.00 | 0.00 | 0.00 | 79 | 1012.3 | |
| 20260503220815 | 30 | 0.0 | 0.0 | 0.00 | 0.00 | 0.00 | 80 | 1012.3 | |
| 20260503220312 | 30 | 0.0 | 0.0 | 0.00 | 0.00 | 0.00 | 80 | 1012.3 | |
| 20260503215808 | 30 | 0.0 | 0.0 | 0.00 | 0.00 | 0.00 | 80 | 1012.3 | |
| 20260503215306 | 30 | 0.0 | 0.0 | 0.00 | 0.00 | 0.00 | 80 | 1012.3 | |
| 20260503214804 | 30 | 0.0 | 0.0 | 0.00 | 0.00 | 0.00 | 80 | 1012.3 | |
| 20260503214300 | 30 | 0.0 | 0.0 | 0.00 | 0.00 | 0.00 | 80 | 1012.3 | |
| 20260503213758 | 30 | 0.0 | 0.0 | 0.00 | 0.00 | 0.00 | 80 | 1012.3 | |
| 20260503213255 | 30 | 0.0 | 0.0 | 0.00 | 0.00 | 0.00 | 80 | 1011.9 | |
| 20260503212752 | 30 | 0.0 | 0.0 | 0.00 | 0.00 | 0.00 | 80 | 1012.3 | |
| 20260503212250 | 30 | 0.0 | 0.0 | 0.00 | 0.00 | 0.00 | 79 | 1012.3 | |
| 20260503211747 | 30 | 0.0 | 0.0 | 0.00 | 0.00 | 0.00 | 79 | 1012.3 | |
| 20260503211243 | 30 | 0.0 | 0.0 | 0.00 | 0.00 | 0.00 | 79 | 1012.3 | |
| 20260503210738 | 30 | 0.0 | 0.0 | 0.00 | 0.00 | 0.00 | 79 | 1012.3 | |
| 20260503210236 | 30 | 0.0 | 0.0 | 0.00 | 0.00 | 0.00 | 79 | 1012.3 | |
| 20260503205731 | 30 | 0.0 | 0.0 | 0.00 | 0.00 | 0.00 | 79 | 1012.3 | |
| 20260503205228 | 30 | 0.0 | 0.0 | 0.00 | 0.00 | 0.00 | 79 | 1012.3 | |
| 20260503204724 | 30 | 0.0 | 0.0 | 0.00 | 0.00 | 0.00 | 79 | 1011.9 | |
| 20260503204222 | 30 | 0.0 | 0.0 | 0.00 | 0.00 | 0.00 | 79 | 1011.9 | |
| 20260503203719 | 30 | 0.0 | 0.0 | 0.00 | 0.00 | 0.00 | 79 | 1011.9 | |
| 20260503203217 | 30 | 0.0 | 0.0 | 0.00 | 0.00 | 0.00 | 79 | 1011.9 | |
| 20260503202714 | 30 | 0.0 | 0.0 | 0.00 | 0.00 | 0.00 | 79 | 1011.9 | |
| 20260503202212 | 30 | 0.0 | 0.0 | 0.00 | 0.00 | 0.00 | 79 | 1011.9 | |
| 20260503201709 | 30 | 0.0 | 0.0 | 0.00 | 0.00 | 0.00 | 79 | 1011.9 | |
| 20260503201207 | 30 | 0.0 | 0.0 | 0.00 | 0.00 | 0.00 | 79 | 1011.9 | |
| 20260503200703 | 30 | 0.0 | 0.0 | 0.00 | 0.00 | 0.00 | 79 | 1011.6 | |
| 20260503200159 | 30 | 0.0 | 0.0 | 0.00 | 0.00 | 0.00 | 79 | 1011.9 | |
| 20260503195656 | 30 | 0.0 | 0.0 | 0.00 | 0.00 | 0.00 | 79 | 1011.6 | |
| 20260503195153 | 30 | 0.0 | 0.0 | 0.00 | 0.00 | 0.00 | 79 | 1011.6 | |
| 20260503194650 | 30 | 0.0 | 0.0 | 0.00 | 0.00 | 0.00 | 79 | 1011.6 | |
| 20260503194145 | 30 | 0.0 | 0.0 | 0.00 | 0.00 | 0.00 | 79 | 1011.6 | |
| 20260503193643 | 30 | 0.0 | 0.0 | 0.00 | 0.00 | 0.00 | 79 | 1011.3 | |
| 20260503193138 | 30 | 0.0 | 0.0 | 0.00 | 0.00 | 0.00 | 79 | 1011.6 | |
| 20260503192634 | 30 | 0.0 | 0.0 | 0.00 | 0.00 | 0.00 | 80 | 1011.6 | |
| 20260503192130 | 30 | 0.0 | 0.0 | 0.00 | 0.00 | 0.00 | 80 | 1011.3 | |
| 20260503191627 | 30 | 0.0 | 0.0 | 0.00 | 0.00 | 0.00 | 80 | 1011.3 | |
| 20260503191124 | 30 | 0.0 | 0.0 | 0.00 | 0.00 | 0.00 | 81 | 1011.3 | |
| 20260503190621 | 30 | 0.0 | 0.0 | 0.00 | 0.00 | 0.00 | 81 | 1011.6 | |
| 20260503190118 | 30 | 0.0 | 0.0 | 0.00 | 0.00 | 0.00 | 82 | 1011.3 | |
| 20260503185614 | 30 | 0.0 | 0.0 | 0.00 | 0.00 | 0.00 | 82 | 1011.3 | |
| 20260503185114 | 30 | 0.0 | 0.0 | 0.00 | 0.00 | 0.00 | 82 | 1011.3 | |
| 20260503184610 | 30 | 0.0 | 0.0 | 0.00 | 0.00 | 0.00 | 82 | 1011.3 | |
| 20260503184107 | 31 | 0.0 | 0.0 | 0.00 | 0.00 | 0.00 | 82 | 1011.6 | |
| 20260503183603 | 31 | 0.0 | 0.0 | 0.00 | 0.00 | 0.00 | 82 | 1011.3 | |
| 20260503183101 | 31 | 0.0 | 0.0 | 0.00 | 0.00 | 0.00 | 82 | 1011.3 | |
| 20260503182559 | 31 | 0.0 | 0.0 | 0.00 | 0.00 | 0.00 | 82 | 1011.3 | |
| 20260503182057 | 31 | 0.0 | 0.0 | 0.00 | 0.00 | 0.00 | 82 | 1011.3 | |
| 20260503181553 | 31 | 0.0 | 0.0 | 0.00 | 0.00 | 0.00 | 82 | 1011.3 | |
| 20260503181050 | 31 | 0.0 | 0.0 | 0.00 | 0.00 | 0.00 | 82 | 1011.3 | |
| 20260503180547 | 31 | 0.0 | 0.0 | 0.00 | 0.00 | 0.00 | 82 | 1011.3 | |
| 20260503180044 | 31 | 0.0 | 0.0 | 0.00 | 0.00 | 0.00 | 82 | 1011.3 | |
| 20260503175541 | 31 | 0.0 | 0.0 | 0.00 | 0.00 | 0.00 | 82 | 1011.3 | |
| 20260503175038 | 31 | 0.0 | 0.0 | 0.00 | 0.00 | 0.00 | 82 | 1011.6 | |
| 20260503174536 | 31 | 0.0 | 0.0 | 0.00 | 0.00 | 0.00 | 83 | 1011.3 | |
| 20260503174032 | 31 | 0.0 | 0.0 | 0.00 | 0.00 | 0.00 | 84 | 1011.6 | |
| 20260503173527 | 31 | 0.0 | 0.0 | 0.00 | 0.00 | 0.00 | 84 | 1011.6 | |
| 20260503173024 | 31 | 0.0 | 0.0 | 0.00 | 0.00 | 0.00 | 85 | 1011.6 | |
| 20260503172521 | 31 | 0.0 | 0.0 | 0.00 | 0.00 | 0.00 | 85 | 1011.3 | |
| 20260503172018 | 31 | 0.0 | 0.0 | 0.00 | 0.00 | 0.00 | 85 | 1011.6 | |
| 20260503171515 | 31 | 0.0 | 0.0 | 0.00 | 0.00 | 0.00 | 85 | 1011.6 | |
| 20260503171012 | 31 | 0.0 | 0.0 | 0.00 | 0.00 | 0.00 | 85 | 1011.3 | |
| 20260503170508 | 31 | 0.0 | 0.0 | 0.00 | 0.00 | 0.00 | 85 | 1011.6 | |
| 20260503150901 | 31 | 0.0 | 0.0 | 0.00 | 0.00 | 0.00 | 82 | 1011.6 | |
| 20260503150357 | 31 | 0.0 | 0.0 | 0.00 | 0.00 | 0.00 | 82 | 1011.6 |